Time,TemperatureF,DewpointF,PressureIn,WindDirection,WindDirectionDegrees,WindSpeedMPH,WindSpeedGustMPH,Humidity,HourlyPrecipIn,Conditions,Clouds,dailyrainin,SoftwareType,DateUTC
2013-06-15 00:01:00,55.6,52.1,30.05,West,273,0.0,0.0,88,0.00,,,0.00,WeatherCatV1.15B25,2013-06-15 04:01:00,
2013-06-15 00:02:00,55.6,52.1,30.05,West,273,0.0,0.0,88,0.00,,,0.00,WeatherCatV1.15B25,2013-06-15 04:02:00,
2013-06-15 00:03:00,55.6,52.1,30.05,West,273,0.0,0.0,88,0.00,,,0.00,WeatherCatV1.15B25,2013-06-15 04:03:00,
2013-06-15 00:05:00,55.5,52.0,30.05,West,272,0.0,0.0,88,0.00,,,0.00,WeatherCatV1.15B25,2013-06-15 04:05:00,
2013-06-15 00:10:00,55.3,51.8,30.05,West,273,0.0,0.0,88,0.00,,,0.00,WeatherCatV1.15B25,2013-06-15 04:10:00,
2013-06-15 00:14:00,55.1,51.6,30.05,West,273,0.0,0.0,88,0.00,,,0.00,WeatherCatV1.15B25,2013-06-15 04:14:00,
2013-06-15 00:19:00,54.9,51.7,30.05,West,272,0.0,0.0,89,0.00,,,0.00,WeatherCatV1.15B25,2013-06-15 04:19:00,
2013-06-15 00:24:00,54.8,51.6,30.05,West,272,0.0,0.0,89,0.00,,,0.00,WeatherCatV1.15B25,2013-06-15 04:24:00,
2013-06-15 00:29:00,54.6,51.4,30.05,West,273,0.0,0.0,89,0.00,,,0.00,WeatherCatV1.15B25,2013-06-15 04:29:00,
2013-06-15 00:34:00,54.5,51.3,30.05,West,273,0.0,0.0,89,0.00,,,0.00,WeatherCatV1.15B25,2013-06-15 04:34:00,
2013-06-15 00:39:00,54.4,51.2,30.05,West,272,0.0,0.0,89,0.00,,,0.00,WeatherCatV1.15B25,2013-06-15 04:39:00,
2013-06-15 00:44:00,54.3,51.1,30.04,West,272,0.0,0.0,89,0.00,,,0.00,WeatherCatV1.15B25,2013-06-15 04:44:00,
2013-06-15 00:49:00,54.2,51.0,30.05,West,273,0.0,0.0,89,0.00,,,0.00,WeatherCatV1.15B25,2013-06-15 04:49:00,
2013-06-15 00:54:00,54.1,50.9,30.04,West,273,0.0,0.0,89,0.00,,,0.00,WeatherCatV1.15B25,2013-06-15 04:54:00,
2013-06-15 00:59:00,54.1,51.2,30.04,West,273,0.0,0.0,90,0.00,,,0.00,WeatherCatV1.15B25,2013-06-15 04:59:00,
2013-06-15 01:04:00,54.1,51.2,30.04,West,273,0.0,0.0,90,0.00,,,0.00,WeatherCatV1.15B25,2013-06-15 05:04:00,
2013-06-15 01:09:00,54.0,51.1,30.04,West,273,0.0,0.0,90,0.00,,,0.00,WeatherCatV1.15B25,2013-06-15 05:09:00,
2013-06-15 01:14:00,53.9,51.0,30.04,West,272,0.0,0.0,90,0.00,,,0.00,WeatherCatV1.15B25,2013-06-15 05:14:00,
2013-06-15 01:19:00,54.0,51.1,30.04,West,272,0.0,0.0,90,0.00,,,0.00,WeatherCatV1.15B25,2013-06-15 05:19:00,
2013-06-15 01:24:00,54.0,51.1,30.04,West,272,0.0,0.0,90,0.00,,,0.00,WeatherCatV1.15B25,2013-06-15 05:24:00,
2013-06-15 01:29:00,53.8,50.9,30.04,West,273,0.0,0.0,90,0.00,,,0.00,WeatherCatV1.15B25,2013-06-15 05:29:00,
2013-06-15 01:34:00,53.7,50.8,30.03,West,273,0.0,0.0,90,0.00,,,0.00,WeatherCatV1.15B25,2013-06-15 05:34:00,
2013-06-15 01:39:00,53.6,50.7,30.03,West,273,0.0,0.0,90,0.00,,,0.00,WeatherCatV1.15B25,2013-06-15 05:39:00,
2013-06-15 01:44:00,53.4,50.5,30.03,West,273,0.0,0.0,90,0.00,,,0.00,WeatherCatV1.15B25,2013-06-15 05:44:00,
2013-06-15 01:49:00,53.3,50.4,30.03,West,272,0.0,0.0,90,0.00,,,0.00,WeatherCatV1.15B25,2013-06-15 05:49:00,
2013-06-15 01:54:00,53.1,50.2,30.03,West,272,0.0,0.0,90,0.00,,,0.00,WeatherCatV1.15B25,2013-06-15 05:54:00,
2013-06-15 01:59:00,53.1,50.2,30.03,West,272,0.0,0.0,90,0.00,,,0.00,WeatherCatV1.15B25,2013-06-15 05:59:00,
2013-06-15 02:04:00,52.9,50.3,30.03,West,273,0.0,0.0,91,0.00,,,0.00,WeatherCatV1.15B25,2013-06-15 06:04:00,
2013-06-15 02:09:00,52.9,50.3,30.02,West,273,0.0,0.0,91,0.00,,,0.00,WeatherCatV1.15B25,2013-06-15 06:09:00,
2013-06-15 02:14:00,52.7,49.8,30.02,West,273,0.0,0.0,90,0.00,,,0.00,WeatherCatV1.15B25,2013-06-15 06:14:00,
2013-06-15 02:19:00,52.7,50.1,30.02,West,272,0.0,0.0,91,0.00,,,0.00,WeatherCatV1.15B25,2013-06-15 06:19:00,
2013-06-15 02:24:00,52.6,50.0,30.02,West,273,0.0,0.0,91,0.00,,,0.00,WeatherCatV1.15B25,2013-06-15 06:24:00,
2013-06-15 02:29:00,52.4,49.8,30.02,West,272,0.0,0.0,91,0.00,,,0.00,WeatherCatV1.15B25,2013-06-15 06:29:00,
2013-06-15 02:34:00,52.3,49.8,30.02,West,272,0.0,0.0,91,0.00,,,0.00,WeatherCatV1.15B25,2013-06-15 06:34:00,
2013-06-15 02:39:00,52.3,49.8,30.02,West,272,0.0,0.0,91,0.00,,,0.00,WeatherCatV1.15B25,2013-06-15 06:39:00,
2013-06-15 02:44:00,52.2,49.7,30.02,West,273,0.0,0.0,91,0.00,,,0.00,WeatherCatV1.15B25,2013-06-15 06:44:00,
2013-06-15 02:49:00,52.1,49.6,30.01,West,273,0.0,0.0,91,0.00,,,0.00,WeatherCatV1.15B25,2013-06-15 06:49:00,
2013-06-15 02:54:00,52.0,49.5,30.01,West,272,0.0,0.0,91,0.00,,,0.00,WeatherCatV1.15B25,2013-06-15 06:54:00,
2013-06-15 02:59:00,51.9,49.4,30.01,West,272,0.0,0.0,91,0.00,,,0.00,WeatherCatV1.15B25,2013-06-15 06:59:00,
2013-06-15 03:04:00,51.7,49.2,30.02,West,272,0.0,0.0,91,0.00,,,0.00,WeatherCatV1.15B25,2013-06-15 07:04:00,
2013-06-15 03:09:00,51.6,49.1,30.01,West,272,0.0,0.0,91,0.00,,,0.00,WeatherCatV1.15B25,2013-06-15 07:09:00,
2013-06-15 03:14:00,51.4,48.9,30.02,West,273,0.0,0.0,91,0.00,,,0.00,WeatherCatV1.15B25,2013-06-15 07:14:00,
2013-06-15 03:19:00,51.4,48.9,30.02,West,273,0.0,0.0,91,0.00,,,0.00,WeatherCatV1.15B25,2013-06-15 07:19:00,
2013-06-15 03:24:00,51.4,48.9,30.03,West,273,0.0,0.0,91,0.00,,,0.00,WeatherCatV1.15B25,2013-06-15 07:24:00,
2013-06-15 03:29:00,51.2,48.7,30.03,West,272,0.0,0.0,91,0.00,,,0.00,WeatherCatV1.15B25,2013-06-15 07:29:00,
2013-06-15 03:34:00,51.1,48.6,30.03,West,272,0.0,0.0,91,0.00,,,0.00,WeatherCatV1.15B25,2013-06-15 07:34:00,
2013-06-15 03:39:00,51.0,48.5,30.03,West,273,0.0,0.0,91,0.00,,,0.00,WeatherCatV1.15B25,2013-06-15 07:39:00,
2013-06-15 03:44:00,51.0,48.5,30.03,West,273,0.0,0.0,91,0.00,,,0.00,WeatherCatV1.15B25,2013-06-15 07:44:00,
2013-06-15 03:49:00,50.9,48.4,30.03,West,273,0.0,0.0,91,0.00,,,0.00,WeatherCatV1.15B25,2013-06-15 07:49:00,
2013-06-15 03:54:00,50.9,48.4,30.03,West,273,0.0,0.0,91,0.00,,,0.00,WeatherCatV1.15B25,2013-06-15 07:54:00,
2013-06-15 03:59:00,50.7,48.2,30.03,West,273,0.0,0.0,91,0.00,,,0.00,WeatherCatV1.15B25,2013-06-15 07:59:00,
2013-06-15 04:04:00,50.6,48.4,30.04,West,272,0.0,0.0,92,0.00,,,0.00,WeatherCatV1.15B25,2013-06-15 08:04:00,
2013-06-15 04:09:00,50.7,48.5,30.04,West,273,0.0,0.0,92,0.00,,,0.00,WeatherCatV1.15B25,2013-06-15 08:09:00,
2013-06-15 04:14:00,50.6,48.4,30.04,West,272,0.0,0.0,92,0.00,,,0.00,WeatherCatV1.15B25,2013-06-15 08:14:00,
2013-06-15 04:19:00,50.5,48.0,30.04,West,273,0.0,0.0,91,0.00,,,0.00,WeatherCatV1.15B25,2013-06-15 08:19:00,
2013-06-15 04:24:00,50.4,47.9,30.04,West,272,0.0,0.0,91,0.00,,,0.00,WeatherCatV1.15B25,2013-06-15 08:24:00,
2013-06-15 04:29:00,50.2,48.0,30.03,West,273,0.0,0.0,92,0.00,,,0.00,WeatherCatV1.15B25,2013-06-15 08:29:00,
2013-06-15 04:34:00,50.3,48.1,30.05,West,273,0.0,0.0,92,0.00,,,0.00,WeatherCatV1.15B25,2013-06-15 08:34:00,
2013-06-15 04:39:00,50.2,48.0,30.05,West,273,0.0,0.0,92,0.00,,,0.00,WeatherCatV1.15B25,2013-06-15 08:39:00,
2013-06-15 04:44:00,50.1,47.9,30.05,West,272,0.0,0.0,92,0.00,,,0.00,WeatherCatV1.15B25,2013-06-15 08:44:00,
2013-06-15 04:49:00,49.9,47.7,30.05,West,272,0.0,0.0,92,0.00,,,0.00,WeatherCatV1.15B25,2013-06-15 08:49:00,
2013-06-15 04:54:00,49.9,47.7,30.06,West,273,0.0,0.0,92,0.00,,,0.00,WeatherCatV1.15B25,2013-06-15 08:54:00,
2013-06-15 04:59:00,49.8,47.6,30.06,West,272,0.0,0.0,92,0.00,,,0.00,WeatherCatV1.15B25,2013-06-15 08:59:00,
2013-06-15 05:04:00,49.8,47.6,30.06,West,273,0.0,0.0,92,0.00,,,0.00,WeatherCatV1.15B25,2013-06-15 09:04:00,
2013-06-15 05:09:00,49.8,47.6,30.05,West,272,0.0,0.0,92,0.00,,,0.00,WeatherCatV1.15B25,2013-06-15 09:09:00,
2013-06-15 05:14:00,49.7,47.5,30.05,West,273,0.0,0.0,92,0.00,,,0.00,WeatherCatV1.15B25,2013-06-15 09:14:00,
2013-06-15 05:19:00,49.7,47.5,30.05,West,272,0.0,0.0,92,0.00,,,0.00,WeatherCatV1.15B25,2013-06-15 09:19:00,
2013-06-15 05:24:00,49.6,47.4,30.05,West,273,0.0,0.0,92,0.00,,,0.00,WeatherCatV1.15B25,2013-06-15 09:24:00,
2013-06-15 05:29:00,49.7,47.5,30.06,West,273,0.0,0.0,92,0.00,,,0.00,WeatherCatV1.15B25,2013-06-15 09:29:00,
2013-06-15 05:34:00,49.7,47.5,30.06,West,273,0.0,0.0,92,0.00,,,0.00,WeatherCatV1.15B25,2013-06-15 09:34:00,
2013-06-15 05:39:00,49.6,47.4,30.06,West,273,0.0,0.0,92,0.00,,,0.00,WeatherCatV1.15B25,2013-06-15 09:39:00,
2013-06-15 05:44:00,49.5,47.3,30.06,West,272,0.0,0.0,92,0.00,,,0.00,WeatherCatV1.15B25,2013-06-15 09:44:00,
2013-06-15 05:49:00,49.4,47.2,30.07,West,273,0.0,0.0,92,0.00,,,0.00,WeatherCatV1.15B25,2013-06-15 09:49:00,
2013-06-15 05:54:00,49.4,47.2,30.07,West,272,0.0,0.0,92,0.00,,,0.00,WeatherCatV1.15B25,2013-06-15 09:54:00,
2013-06-15 05:59:00,49.4,47.2,30.06,West,273,0.0,0.0,92,0.00,,,0.00,WeatherCatV1.15B25,2013-06-15 09:59:00,
2013-06-15 06:04:00,49.5,47.3,30.07,West,273,0.0,0.0,92,0.00,,,0.00,WeatherCatV1.15B25,2013-06-15 10:04:00,
2013-06-15 06:09:00,49.6,47.4,30.07,West,273,0.0,0.0,92,0.00,,,0.00,WeatherCatV1.15B25,2013-06-15 10:09:00,
2013-06-15 06:14:00,49.6,47.4,30.07,West,273,0.0,0.0,92,0.00,,,0.00,WeatherCatV1.15B25,2013-06-15 10:14:00,
2013-06-15 06:19:00,49.6,47.4,30.07,West,273,0.0,0.0,92,0.00,,,0.00,WeatherCatV1.15B25,2013-06-15 10:19:00,
2013-06-15 06:24:00,49.8,47.6,30.07,West,273,0.0,0.0,92,0.00,,,0.00,WeatherCatV1.15B25,2013-06-15 10:24:00,
2013-06-15 06:29:00,49.9,47.7,30.07,West,272,0.0,0.0,92,0.00,,,0.00,WeatherCatV1.15B25,2013-06-15 10:29:00,
2013-06-15 06:34:00,50.0,47.8,30.08,West,273,0.0,0.0,92,0.00,,,0.00,WeatherCatV1.15B25,2013-06-15 10:34:00,
2013-06-15 06:39:00,50.2,48.0,30.09,West,272,0.0,0.0,92,0.00,,,0.00,WeatherCatV1.15B25,2013-06-15 10:39:00,
2013-06-15 06:44:00,50.4,48.2,30.08,West,273,0.0,0.0,92,0.00,,,0.00,WeatherCatV1.15B25,2013-06-15 10:44:00,
2013-06-15 06:49:00,50.5,48.3,30.09,West,273,0.0,0.0,92,0.00,,,0.00,WeatherCatV1.15B25,2013-06-15 10:49:00,
2013-06-15 06:54:00,50.7,48.5,30.08,West,272,0.0,0.0,92,0.00,,,0.00,WeatherCatV1.15B25,2013-06-15 10:54:00,
2013-06-15 07:00:00,50.9,48.9,30.07,West,272,0.0,0.0,93,0.00,,,0.00,WeatherCatV1.15B25,2013-06-15 11:00:00,
2013-06-15 07:05:00,51.1,49.1,30.08,West,273,0.0,0.0,93,0.00,,,0.00,WeatherCatV1.15B25,2013-06-15 11:05:00,
2013-06-15 07:10:00,51.3,49.1,30.08,West,273,0.0,0.0,92,0.00,,,0.00,WeatherCatV1.15B25,2013-06-15 11:10:00,
2013-06-15 07:15:00,51.5,49.3,30.08,West,273,0.0,0.0,92,0.00,,,0.00,WeatherCatV1.15B25,2013-06-15 11:15:00,
2013-06-15 07:20:00,52.1,50.1,30.08,West,272,0.0,0.0,93,0.00,,,0.00,WeatherCatV1.15B25,2013-06-15 11:20:00,
2013-06-15 07:25:00,52.5,50.5,30.08,West,273,0.0,0.0,93,0.00,,,0.00,WeatherCatV1.15B25,2013-06-15 11:25:00,
2013-06-15 07:30:00,53.1,51.1,30.09,West,273,0.0,0.0,93,0.00,,,0.00,WeatherCatV1.15B25,2013-06-15 11:30:00,
2013-06-15 07:35:00,53.4,51.4,30.08,West,272,0.0,0.0,93,0.00,,,0.00,WeatherCatV1.15B25,2013-06-15 11:35:00,
2013-06-15 07:40:00,53.5,51.5,30.09,West,273,0.0,0.0,93,0.00,,,0.00,WeatherCatV1.15B25,2013-06-15 11:40:00,
2013-06-15 07:45:00,54.0,52.0,30.09,West,272,0.0,1.0,93,0.00,,,0.00,WeatherCatV1.15B25,2013-06-15 11:45:00,
2013-06-15 07:50:00,54.6,52.6,30.09,West,273,0.0,0.0,93,0.00,,,0.00,WeatherCatV1.15B25,2013-06-15 11:50:00,
2013-06-15 07:55:00,55.1,53.1,30.09,West,273,0.0,0.0,93,0.00,,,0.00,WeatherCatV1.15B25,2013-06-15 11:55:00,
2013-06-15 08:00:00,55.6,53.6,30.09,West,273,0.0,0.0,93,0.00,,,0.00,WeatherCatV1.15B25,2013-06-15 12:00:00,
2013-06-15 08:05:00,56.1,54.1,30.09,West,273,0.0,0.0,93,0.00,,,0.00,WeatherCatV1.15B25,2013-06-15 12:05:00,
2013-06-15 08:10:00,56.6,54.6,30.08,West,272,0.0,0.0,93,0.00,,,0.00,WeatherCatV1.15B25,2013-06-15 12:10:00,
2013-06-15 08:15:00,57.2,55.2,30.09,West,272,0.0,0.0,93,0.00,,,0.00,WeatherCatV1.15B25,2013-06-15 12:15:00,
2013-06-15 08:20:00,57.8,55.8,30.09,West,273,0.0,0.0,93,0.00,,,0.00,WeatherCatV1.15B25,2013-06-15 12:20:00,
2013-06-15 08:25:00,58.6,56.6,30.09,West,273,0.0,0.0,93,0.00,,,0.00,WeatherCatV1.15B25,2013-06-15 12:25:00,
2013-06-15 08:30:00,59.4,57.1,30.09,West,272,0.0,0.0,92,0.00,,,0.00,WeatherCatV1.15B25,2013-06-15 12:30:00,
2013-06-15 08:35:00,60.0,57.7,30.10,West,273,0.0,0.0,92,0.00,,,0.00,WeatherCatV1.15B25,2013-06-15 12:35:00,
2013-06-15 08:40:00,60.3,57.7,30.10,WSW,257,0.0,4.0,91,0.00,,,0.00,WeatherCatV1.15B25,2013-06-15 12:40:00,
2013-06-15 08:45:00,60.9,57.9,30.09,SW,223,0.0,0.0,90,0.00,,,0.00,WeatherCatV1.15B25,2013-06-15 12:45:00,
2013-06-15 08:50:00,61.5,58.2,30.09,SW,234,0.0,0.0,89,0.00,,,0.00,WeatherCatV1.15B25,2013-06-15 12:50:00,
2013-06-15 08:55:00,62.0,58.4,30.09,SW,235,0.0,0.0,88,0.00,,,0.00,WeatherCatV1.15B25,2013-06-15 12:55:00,
2013-06-15 09:00:00,62.5,57.9,30.10,WSW,239,0.0,0.0,85,0.00,,,0.00,WeatherCatV1.15B25,2013-06-15 13:00:00,
2013-06-15 09:05:00,63.0,57.4,30.10,SW,236,0.0,0.0,82,0.00,,,0.00,WeatherCatV1.15B25,2013-06-15 13:05:00,
2013-06-15 09:10:00,63.7,57.8,30.10,WSW,252,0.0,1.0,81,0.00,,,0.00,WeatherCatV1.15B25,2013-06-15 13:10:00,
2013-06-15 09:15:00,64.1,57.4,30.09,WSW,251,0.0,0.0,79,0.00,,,0.00,WeatherCatV1.15B25,2013-06-15 13:15:00,
2013-06-15 09:20:00,64.5,56.8,30.10,WSW,250,0.0,0.0,76,0.00,,,0.00,WeatherCatV1.15B25,2013-06-15 13:20:00,
2013-06-15 09:25:00,65.0,57.6,30.09,WSW,250,0.0,0.0,77,0.00,,,0.00,WeatherCatV1.15B25,2013-06-15 13:25:00,
2013-06-15 09:30:00,65.6,56.7,30.10,WSW,251,0.0,1.0,73,0.00,,,0.00,WeatherCatV1.15B25,2013-06-15 13:30:00,
2013-06-15 09:35:00,65.5,54.7,30.10,South,178,0.0,3.0,68,0.00,,,0.00,WeatherCatV1.15B25,2013-06-15 13:35:00,
2013-06-15 09:40:00,65.8,56.1,30.10,SW,234,0.0,1.0,71,0.00,,,0.00,WeatherCatV1.15B25,2013-06-15 13:40:00,
2013-06-15 09:45:00,66.4,56.7,30.10,SW,234,0.0,0.0,71,0.00,,,0.00,WeatherCatV1.15B25,2013-06-15 13:45:00,
2013-06-15 09:50:00,66.7,56.2,30.10,SSW,193,0.0,3.0,69,0.00,,,0.00,WeatherCatV1.15B25,2013-06-15 13:50:00,
2013-06-15 09:55:00,66.7,57.0,30.10,WSW,249,0.0,1.0,71,0.00,,,0.00,WeatherCatV1.15B25,2013-06-15 13:55:00,
2013-06-15 10:00:00,67.1,55.4,30.10,WSW,246,3.0,3.0,66,0.00,,,0.00,WeatherCatV1.15B25,2013-06-15 14:00:00,
2013-06-15 10:05:00,67.3,52.9,30.10,West,272,0.0,5.0,60,0.00,,,0.00,WeatherCatV1.15B25,2013-06-15 14:05:00,
2013-06-15 10:10:00,67.4,53.5,30.09,WSW,248,0.0,3.0,61,0.00,,,0.00,WeatherCatV1.15B25,2013-06-15 14:10:00,
2013-06-15 10:15:00,67.7,51.4,30.09,West,269,0.0,2.0,56,0.00,,,0.00,WeatherCatV1.15B25,2013-06-15 14:15:00,
2013-06-15 10:20:00,68.0,52.2,30.09,WSW,244,0.0,0.0,57,0.00,,,0.00,WeatherCatV1.15B25,2013-06-15 14:20:00,
2013-06-15 10:25:00,68.1,52.3,30.08,SW,222,0.0,4.0,57,0.00,,,0.00,WeatherCatV1.15B25,2013-06-15 14:25:00,
2013-06-15 10:30:00,68.2,50.4,30.08,West,269,0.0,2.0,53,0.00,,,0.00,WeatherCatV1.15B25,2013-06-15 14:30:00,
2013-06-15 10:35:00,68.7,51.4,30.08,West,268,0.0,0.0,54,0.00,,,0.00,WeatherCatV1.15B25,2013-06-15 14:35:00,
2013-06-15 10:40:00,69.4,54.0,30.08,West,269,0.0,0.0,58,0.00,,,0.00,WeatherCatV1.15B25,2013-06-15 14:40:00,
2013-06-15 10:45:00,69.8,54.3,30.07,SW,223,3.0,4.0,58,0.00,,,0.00,WeatherCatV1.15B25,2013-06-15 14:45:00,
2013-06-15 10:50:00,69.9,56.7,30.07,SW,234,1.0,2.0,63,0.00,,,0.00,WeatherCatV1.15B25,2013-06-15 14:50:00,
2013-06-15 10:55:00,70.5,58.2,30.07,SW,227,0.0,0.0,65,0.00,,,0.00,WeatherCatV1.15B25,2013-06-15 14:55:00,
2013-06-15 11:00:00,70.8,56.2,30.07,WSW,257,2.0,3.0,60,0.00,,,0.00,WeatherCatV1.15B25,2013-06-15 15:00:00,
2013-06-15 11:05:00,71.0,57.8,30.07,WSW,257,1.0,1.0,63,0.00,,,0.00,WeatherCatV1.15B25,2013-06-15 15:05:00,
2013-06-15 11:10:00,70.9,57.2,30.07,WSW,250,1.0,1.0,62,0.00,,,0.00,WeatherCatV1.15B25,2013-06-15 15:10:00,
2013-06-15 11:15:00,71.1,56.5,30.07,West,277,0.0,1.0,60,0.00,,,0.00,WeatherCatV1.15B25,2013-06-15 15:15:00,
2013-06-15 11:20:00,71.1,57.0,30.07,NW,315,0.0,0.0,61,0.00,,,0.00,WeatherCatV1.15B25,2013-06-15 15:20:00,
2013-06-15 11:25:00,70.6,56.5,30.07,WNW,296,0.0,0.0,61,0.00,,,0.00,WeatherCatV1.15B25,2013-06-15 15:25:00,
2013-06-15 11:30:00,70.9,57.7,30.07,WNW,290,0.0,1.0,63,0.00,,,0.00,WeatherCatV1.15B25,2013-06-15 15:30:00,
2013-06-15 11:35:00,71.2,55.2,30.07,SW,229,2.0,4.0,57,0.00,,,0.00,WeatherCatV1.15B25,2013-06-15 15:35:00,
2013-06-15 11:40:00,71.1,56.0,30.07,WSW,240,1.0,2.0,59,0.00,,,0.00,WeatherCatV1.15B25,2013-06-15 15:40:00,
2013-06-15 11:45:00,71.6,56.5,30.06,WNW,289,0.0,1.0,59,0.00,,,0.00,WeatherCatV1.15B25,2013-06-15 15:45:00,
2013-06-15 11:50:00,71.1,53.6,30.07,WNW,289,0.0,0.0,54,0.00,,,0.00,WeatherCatV1.15B25,2013-06-15 15:50:00,
2013-06-15 11:55:00,70.7,56.1,30.06,West,265,3.0,3.0,60,0.00,,,0.00,WeatherCatV1.15B25,2013-06-15 15:55:00,
2013-06-15 12:00:00,70.7,54.2,30.06,WSW,252,1.0,3.0,56,0.00,,,0.00,WeatherCatV1.15B25,2013-06-15 16:00:00,
2013-06-15 12:05:00,70.7,54.2,30.06,WSW,257,0.0,0.0,56,0.00,,,0.00,WeatherCatV1.15B25,2013-06-15 16:05:00,
2013-06-15 12:10:00,71.1,54.6,30.06,West,260,0.0,3.0,56,0.00,,,0.00,WeatherCatV1.15B25,2013-06-15 16:10:00,
2013-06-15 12:15:00,71.3,55.7,30.06,West,260,0.0,3.0,58,0.00,,,0.00,WeatherCatV1.15B25,2013-06-15 16:15:00,
2013-06-15 12:20:00,71.9,56.8,30.06,West,261,0.0,1.0,59,0.00,,,0.00,WeatherCatV1.15B25,2013-06-15 16:20:00,
2013-06-15 12:25:00,72.6,55.5,30.06,WSW,253,3.0,3.0,55,0.00,,,0.00,WeatherCatV1.15B25,2013-06-15 16:25:00,
2013-06-15 12:30:00,72.8,55.7,30.06,West,267,2.0,2.0,55,0.00,,,0.00,WeatherCatV1.15B25,2013-06-15 16:30:00,
2013-06-15 12:35:00,72.5,54.9,30.05,WSW,252,0.0,5.0,54,0.00,,,0.00,WeatherCatV1.15B25,2013-06-15 16:35:00,
2013-06-15 12:40:00,72.8,58.6,30.05,WSW,252,2.0,2.0,61,0.00,,,0.00,WeatherCatV1.15B25,2013-06-15 16:40:00,
2013-06-15 12:45:00,72.7,56.1,30.05,WSW,240,2.0,2.0,56,0.00,,,0.00,WeatherCatV1.15B25,2013-06-15 16:45:00,
2013-06-15 12:50:00,72.0,55.9,30.05,West,276,2.0,2.0,57,0.00,,,0.00,WeatherCatV1.15B25,2013-06-15 16:50:00,
2013-06-15 12:55:00,71.8,55.7,30.05,West,276,0.0,0.0,57,0.00,,,0.00,WeatherCatV1.15B25,2013-06-15 16:55:00,
2013-06-15 13:00:00,71.8,57.2,30.05,West,277,1.0,2.0,60,0.00,,,0.00,WeatherCatV1.15B25,2013-06-15 17:00:00,
2013-06-15 13:05:00,71.8,56.7,30.04,West,259,0.0,1.0,59,0.00,,,0.00,WeatherCatV1.15B25,2013-06-15 17:05:00,
2013-06-15 13:10:00,72.2,58.4,30.04,West,260,0.0,2.0,62,0.00,,,0.00,WeatherCatV1.15B25,2013-06-15 17:10:00,
2013-06-15 13:15:00,72.3,56.7,30.04,West,259,0.0,1.0,58,0.00,,,0.00,WeatherCatV1.15B25,2013-06-15 17:15:00,
2013-06-15 13:20:00,72.3,57.2,30.04,West,279,1.0,1.0,59,0.00,,,0.00,WeatherCatV1.15B25,2013-06-15 17:20:00,
2013-06-15 13:25:00,72.2,56.6,30.04,SW,219,3.0,4.0,58,0.00,,,0.00,WeatherCatV1.15B25,2013-06-15 17:25:00,
2013-06-15 13:30:00,72.4,56.8,30.04,WSW,253,0.0,2.0,58,0.00,,,0.00,WeatherCatV1.15B25,2013-06-15 17:30:00,
2013-06-15 13:35:00,73.0,56.9,30.03,WSW,253,0.0,0.0,57,0.00,,,0.00,WeatherCatV1.15B25,2013-06-15 17:35:00,
2013-06-15 13:40:00,74.0,58.3,30.03,WSW,253,2.0,4.0,58,0.00,,,0.00,WeatherCatV1.15B25,2013-06-15 17:40:00,
2013-06-15 13:45:00,74.1,57.9,30.03,WSW,252,0.0,3.0,57,0.00,,,0.00,WeatherCatV1.15B25,2013-06-15 17:45:00,
2013-06-15 13:50:00,74.5,57.8,30.02,WSW,252,1.0,2.0,56,0.00,,,0.00,WeatherCatV1.15B25,2013-06-15 17:50:00,
2013-06-15 13:55:00,74.7,57.4,30.02,WSW,240,0.0,2.0,55,0.00,,,0.00,WeatherCatV1.15B25,2013-06-15 17:55:00,
2013-06-15 14:00:00,75.0,55.6,30.02,WNW,303,3.0,5.0,51,0.00,,,0.00,WeatherCatV1.15B25,2013-06-15 18:00:00,
2013-06-15 14:05:00,74.5,55.2,30.02,SW,226,0.0,4.0,51,0.00,,,0.00,WeatherCatV1.15B25,2013-06-15 18:05:00,
2013-06-15 14:10:00,74.5,55.7,30.03,West,263,1.0,4.0,52,0.00,,,0.00,WeatherCatV1.15B25,2013-06-15 18:10:00,
2013-06-15 14:15:00,74.5,55.2,30.02,WNW,293,3.0,4.0,51,0.00,,,0.00,WeatherCatV1.15B25,2013-06-15 18:15:00,
2013-06-15 14:20:00,74.4,54.5,30.02,WNW,287,0.0,2.0,50,0.00,,,0.00,WeatherCatV1.15B25,2013-06-15 18:20:00,
2013-06-15 14:25:00,74.1,55.3,30.02,WSW,257,1.0,3.0,52,0.00,,,0.00,WeatherCatV1.15B25,2013-06-15 18:25:00,
2013-06-15 14:30:00,74.6,54.7,30.02,WSW,250,2.0,5.0,50,0.00,,,0.00,WeatherCatV1.15B25,2013-06-15 18:30:00,
2013-06-15 14:35:00,74.9,56.1,30.02,WNW,290,2.0,3.0,52,0.00,,,0.00,WeatherCatV1.15B25,2013-06-15 18:35:00,
2013-06-15 14:40:00,75.1,54.1,30.02,SW,236,2.0,4.0,48,0.00,,,0.00,WeatherCatV1.15B25,2013-06-15 18:40:00,
2013-06-15 14:45:00,75.2,54.1,30.01,West,263,1.0,2.0,48,0.00,,,0.00,WeatherCatV1.15B25,2013-06-15 18:45:00,
2013-06-15 14:50:00,75.9,54.2,30.01,WNW,292,0.0,4.0,47,0.00,,,0.00,WeatherCatV1.15B25,2013-06-15 18:50:00,
2013-06-15 14:55:00,76.3,54.0,30.01,WNW,294,3.0,3.0,46,0.00,,,0.00,WeatherCatV1.15B25,2013-06-15 18:55:00,
2013-06-15 15:00:00,76.1,53.2,30.01,SW,229,4.0,6.0,45,0.00,,,0.00,WeatherCatV1.15B25,2013-06-15 19:00:00,
2013-06-15 15:05:00,76.6,53.0,30.01,West,273,0.0,3.0,44,0.00,,,0.00,WeatherCatV1.15B25,2013-06-15 19:05:00,
2013-06-15 15:10:00,77.1,55.9,30.01,SSW,198,4.0,4.0,48,0.00,,,0.00,WeatherCatV1.15B25,2013-06-15 19:10:00,
2013-06-15 15:15:00,77.2,56.5,30.01,South,185,0.0,0.0,49,0.00,,,0.00,WeatherCatV1.15B25,2013-06-15 19:15:00,
2013-06-15 15:20:00,77.9,54.2,30.00,WSW,256,2.0,4.0,44,0.00,,,0.00,WeatherCatV1.15B25,2013-06-15 19:20:00,
2013-06-15 15:25:00,77.0,53.4,30.00,SW,219,2.0,4.0,44,0.00,,,0.00,WeatherCatV1.15B25,2013-06-15 19:25:00,
2013-06-15 15:30:00,76.9,52.7,30.00,ENE,60,0.0,1.0,43,0.00,,,0.00,WeatherCatV1.15B25,2013-06-15 19:30:00,
2013-06-15 15:35:00,77.3,54.9,30.00,West,259,1.0,3.0,46,0.00,,,0.00,WeatherCatV1.15B25,2013-06-15 19:35:00,
2013-06-15 15:40:00,77.3,56.6,30.00,WSW,251,2.0,4.0,49,0.00,,,0.00,WeatherCatV1.15B25,2013-06-15 19:40:00,
2013-06-15 15:45:00,77.0,56.9,30.00,West,266,1.0,2.0,50,0.00,,,0.00,WeatherCatV1.15B25,2013-06-15 19:45:00,
2013-06-15 15:50:00,76.4,55.8,30.00,WNW,293,3.0,3.0,49,0.00,,,0.00,WeatherCatV1.15B25,2013-06-15 19:50:00,
2013-06-15 15:55:00,76.8,57.3,30.00,NW,304,0.0,2.0,51,0.00,,,0.00,WeatherCatV1.15B25,2013-06-15 19:55:00,
2013-06-15 16:00:00,76.6,53.0,30.00,WNW,290,2.0,3.0,44,0.00,,,0.00,WeatherCatV1.15B25,2013-06-15 20:00:00,
2013-06-15 16:05:00,77.2,56.0,30.00,WSW,249,4.0,4.0,48,0.00,,,0.00,WeatherCatV1.15B25,2013-06-15 20:05:00,
2013-06-15 16:10:00,76.9,53.3,30.00,West,268,0.0,2.0,44,0.00,,,0.00,WeatherCatV1.15B25,2013-06-15 20:10:00,
2013-06-15 16:15:00,76.7,52.5,30.00,WSW,248,2.0,4.0,43,0.00,,,0.00,WeatherCatV1.15B25,2013-06-15 20:15:00,
2013-06-15 16:20:00,77.0,54.0,30.00,SSW,207,6.0,6.0,45,0.00,,,0.00,WeatherCatV1.15B25,2013-06-15 20:20:00,
2013-06-15 16:25:00,76.1,51.3,30.00,SW,229,3.0,4.0,42,0.00,,,0.00,WeatherCatV1.15B25,2013-06-15 20:25:00,
2013-06-15 16:30:00,76.0,50.6,30.00,SW,236,2.0,7.0,41,0.00,,,0.00,WeatherCatV1.15B25,2013-06-15 20:30:00,
2013-06-15 16:35:00,76.4,50.9,30.00,SW,227,2.0,7.0,41,0.00,,,0.00,WeatherCatV1.15B25,2013-06-15 20:35:00,
2013-06-15 16:40:00,76.4,50.9,30.00,West,259,2.0,6.0,41,0.00,,,0.00,WeatherCatV1.15B25,2013-06-15 20:40:00,
2013-06-15 16:45:00,76.7,49.9,30.00,SW,231,3.0,5.0,39,0.00,,,0.00,WeatherCatV1.15B25,2013-06-15 20:45:00,
2013-06-15 16:50:00,76.7,51.2,30.00,West,263,2.0,4.0,41,0.00,,,0.00,WeatherCatV1.15B25,2013-06-15 20:50:00,
2013-06-15 16:55:00,76.9,50.0,30.00,WNW,290,0.0,0.0,39,0.00,,,0.00,WeatherCatV1.15B25,2013-06-15 20:55:00,
2013-06-15 17:00:00,76.7,49.2,30.00,West,269,2.0,4.0,38,0.00,,,0.00,WeatherCatV1.15B25,2013-06-15 21:00:00,
2013-06-15 17:05:00,76.9,52.0,30.00,SW,225,2.0,4.0,42,0.00,,,0.00,WeatherCatV1.15B25,2013-06-15 21:05:00,
2013-06-15 17:10:00,76.5,52.3,30.00,SSW,209,3.0,3.0,43,0.00,,,0.00,WeatherCatV1.15B25,2013-06-15 21:10:00,
2013-06-15 17:15:00,76.6,51.8,30.00,SW,219,1.0,4.0,42,0.00,,,0.00,WeatherCatV1.15B25,2013-06-15 21:15:00,
2013-06-15 17:20:00,77.1,50.9,30.00,WSW,238,0.0,4.0,40,0.00,,,0.00,WeatherCatV1.15B25,2013-06-15 21:20:00,
2013-06-15 17:25:00,77.4,53.1,29.99,WSW,250,3.0,6.0,43,0.00,,,0.00,WeatherCatV1.15B25,2013-06-15 21:25:00,
2013-06-15 17:30:00,76.7,49.9,30.00,West,271,5.0,5.0,39,0.00,,,0.00,WeatherCatV1.15B25,2013-06-15 21:30:00,
2013-06-15 17:35:00,75.6,50.2,29.99,SW,219,3.0,6.0,41,0.00,,,0.00,WeatherCatV1.15B25,2013-06-15 21:35:00,
2013-06-15 17:40:00,75.0,50.3,29.99,SW,236,1.0,3.0,42,0.00,,,0.00,WeatherCatV1.15B25,2013-06-15 21:40:00,
2013-06-15 17:45:00,74.7,49.4,29.99,SW,226,1.0,5.0,41,0.00,,,0.00,WeatherCatV1.15B25,2013-06-15 21:45:00,
2013-06-15 17:50:00,74.6,50.0,29.99,WNW,299,0.0,4.0,42,0.00,,,0.00,WeatherCatV1.15B25,2013-06-15 21:50:00,
2013-06-15 17:55:00,74.8,50.8,29.99,WSW,251,2.0,4.0,43,0.00,,,0.00,WeatherCatV1.15B25,2013-06-15 21:55:00,
2013-06-15 18:00:00,75.1,51.7,29.98,WSW,238,2.0,3.0,44,0.00,,,0.00,WeatherCatV1.15B25,2013-06-15 22:00:00,
2013-06-15 18:05:00,75.1,52.3,29.98,SW,217,3.0,5.0,45,0.00,,,0.00,WeatherCatV1.15B25,2013-06-15 22:05:00,
2013-06-15 18:10:00,74.8,52.6,29.98,SW,226,0.0,2.0,46,0.00,,,0.00,WeatherCatV1.15B25,2013-06-15 22:10:00,
2013-06-15 18:15:00,74.4,52.3,29.98,WSW,238,2.0,3.0,46,0.00,,,0.00,WeatherCatV1.15B25,2013-06-15 22:15:00,
2013-06-15 18:20:00,74.1,52.0,29.99,WSW,249,0.0,0.0,46,0.00,,,0.00,WeatherCatV1.15B25,2013-06-15 22:20:00,
2013-06-15 18:25:00,74.1,52.0,29.98,WSW,254,0.0,1.0,46,0.00,,,0.00,WeatherCatV1.15B25,2013-06-15 22:25:00,
2013-06-15 18:30:00,74.3,52.7,29.98,WSW,251,0.0,2.0,47,0.00,,,0.00,WeatherCatV1.15B25,2013-06-15 22:30:00,
2013-06-15 18:35:00,74.6,53.6,29.98,West,269,1.0,3.0,48,0.00,,,0.00,WeatherCatV1.15B25,2013-06-15 22:35:00,
2013-06-15 18:40:00,74.9,54.4,29.98,SW,224,2.0,2.0,49,0.00,,,0.00,WeatherCatV1.15B25,2013-06-15 22:40:00,
2013-06-15 18:45:00,74.9,53.9,29.98,West,259,0.0,2.0,48,0.00,,,0.00,WeatherCatV1.15B25,2013-06-15 22:45:00,
2013-06-15 18:50:00,74.6,54.7,29.98,West,259,0.0,1.0,50,0.00,,,0.00,WeatherCatV1.15B25,2013-06-15 22:50:00,
2013-06-15 18:55:00,74.2,54.3,29.98,WSW,252,0.0,2.0,50,0.00,,,0.00,WeatherCatV1.15B25,2013-06-15 22:55:00,
2013-06-15 19:00:00,74.0,54.7,29.98,WSW,252,0.0,0.0,51,0.00,,,0.00,WeatherCatV1.15B25,2013-06-15 23:00:00,
2013-06-15 19:05:00,73.9,54.1,29.98,WSW,257,0.0,1.0,50,0.00,,,0.00,WeatherCatV1.15B25,2013-06-15 23:05:00,
2013-06-15 19:10:00,73.8,54.5,29.98,WSW,256,1.0,1.0,51,0.00,,,0.00,WeatherCatV1.15B25,2013-06-15 23:10:00,
2013-06-15 19:15:00,73.8,55.1,29.98,WSW,257,0.0,0.0,52,0.00,,,0.00,WeatherCatV1.15B25,2013-06-15 23:15:00,
2013-06-15 19:20:00,73.7,57.0,29.97,WSW,256,0.0,0.0,56,0.00,,,0.00,WeatherCatV1.15B25,2013-06-15 23:20:00,
2013-06-15 19:25:00,73.5,58.3,29.97,WSW,256,0.0,0.0,59,0.00,,,0.00,WeatherCatV1.15B25,2013-06-15 23:25:00,
2013-06-15 19:30:00,72.9,56.3,29.97,WSW,257,0.0,0.0,56,0.00,,,0.00,WeatherCatV1.15B25,2013-06-15 23:30:00,
2013-06-15 19:35:00,72.7,57.1,29.97,WSW,257,0.0,0.0,58,0.00,,,0.00,WeatherCatV1.15B25,2013-06-15 23:35:00,
2013-06-15 19:40:00,72.5,57.8,29.97,WSW,256,0.0,0.0,60,0.00,,,0.00,WeatherCatV1.15B25,2013-06-15 23:40:00,
2013-06-15 19:45:00,72.6,58.8,29.97,WSW,256,0.0,0.0,62,0.00,,,0.00,WeatherCatV1.15B25,2013-06-15 23:45:00,
2013-06-15 19:50:00,72.6,58.8,29.97,WSW,257,0.0,0.0,62,0.00,,,0.00,WeatherCatV1.15B25,2013-06-15 23:50:00,
2013-06-15 19:55:00,72.5,58.7,29.96,WSW,257,0.0,0.0,62,0.00,,,0.00,WeatherCatV1.15B25,2013-06-15 23:55:00,
2013-06-15 20:00:00,72.3,59.0,29.96,WSW,256,0.0,0.0,63,0.00,,,0.00,WeatherCatV1.15B25,2013-06-16 00:00:00,
2013-06-15 20:05:00,72.1,60.5,29.96,WSW,257,0.0,0.0,67,0.00,,,0.00,WeatherCatV1.15B25,2013-06-16 00:05:00,
2013-06-15 20:10:00,72.0,59.6,29.96,WSW,257,0.0,0.0,65,0.00,,,0.00,WeatherCatV1.15B25,2013-06-16 00:10:00,
2013-06-15 20:15:00,71.5,59.5,29.95,WSW,256,0.0,0.0,66,0.00,,,0.00,WeatherCatV1.15B25,2013-06-16 00:15:00,
2013-06-15 20:20:00,71.3,59.8,29.96,WSW,256,0.0,0.0,67,0.00,,,0.00,WeatherCatV1.15B25,2013-06-16 00:20:00,
2013-06-15 20:25:00,71.1,60.4,29.95,WSW,257,0.0,0.0,69,0.00,,,0.00,WeatherCatV1.15B25,2013-06-16 00:25:00,
2013-06-15 20:30:00,70.9,60.6,29.95,WSW,257,0.0,0.0,70,0.00,,,0.00,WeatherCatV1.15B25,2013-06-16 00:30:00,
2013-06-15 20:35:00,70.6,60.3,29.95,WSW,256,0.0,0.0,70,0.00,,,0.00,WeatherCatV1.15B25,2013-06-16 00:35:00,
2013-06-15 20:40:00,70.3,59.6,29.95,WSW,256,0.0,0.0,69,0.00,,,0.00,WeatherCatV1.15B25,2013-06-16 00:40:00,
2013-06-15 20:45:00,70.1,59.0,29.95,WSW,257,0.0,0.0,68,0.00,,,0.00,WeatherCatV1.15B25,2013-06-16 00:45:00,
2013-06-15 20:50:00,70.0,59.8,29.95,WSW,257,0.0,0.0,70,0.00,,,0.00,WeatherCatV1.15B25,2013-06-16 00:50:00,
2013-06-15 20:55:00,69.9,59.7,29.95,WSW,257,0.0,0.0,70,0.00,,,0.00,WeatherCatV1.15B25,2013-06-16 00:55:00,
2013-06-15 21:00:00,69.7,59.5,29.94,WSW,256,0.0,0.0,70,0.00,,,0.00,WeatherCatV1.15B25,2013-06-16 01:00:00,
2013-06-15 21:05:00,69.6,59.4,29.94,WSW,257,0.0,0.0,70,0.00,,,0.00,WeatherCatV1.15B25,2013-06-16 01:05:00,
2013-06-15 21:10:00,69.4,58.4,29.94,WSW,257,0.0,0.0,68,0.00,,,0.00,WeatherCatV1.15B25,2013-06-16 01:10:00,
2013-06-15 21:15:00,69.4,59.6,29.95,WSW,257,2.0,2.0,71,0.00,,,0.00,WeatherCatV1.15B25,2013-06-16 01:15:00,
2013-06-15 21:20:00,69.8,58.7,29.95,SW,216,6.0,6.0,68,0.00,,,0.00,WeatherCatV1.15B25,2013-06-16 01:20:00,
2013-06-15 21:25:00,70.6,56.9,29.95,WSW,240,3.0,4.0,62,0.00,,,0.00,WeatherCatV1.15B25,2013-06-16 01:25:00,
2013-06-15 21:30:00,70.8,56.2,29.95,SSW,201,3.0,5.0,60,0.00,,,0.00,WeatherCatV1.15B25,2013-06-16 01:30:00,
2013-06-15 21:35:00,70.7,55.7,29.95,SW,223,2.0,5.0,59,0.00,,,0.00,WeatherCatV1.15B25,2013-06-16 01:35:00,
2013-06-15 21:40:00,70.5,55.9,29.95,WSW,257,2.0,3.0,60,0.00,,,0.00,WeatherCatV1.15B25,2013-06-16 01:40:00,
2013-06-15 21:45:00,70.4,55.8,29.95,WSW,258,2.0,4.0,60,0.00,,,0.00,WeatherCatV1.15B25,2013-06-16 01:45:00,
2013-06-15 21:50:00,70.2,56.1,29.96,South,188,0.0,4.0,61,0.00,,,0.00,WeatherCatV1.15B25,2013-06-16 01:50:00,
2013-06-15 21:55:00,70.0,56.4,29.96,South,188,0.0,1.0,62,0.00,,,0.00,WeatherCatV1.15B25,2013-06-16 01:55:00,
2013-06-15 22:00:00,69.9,56.3,29.95,South,188,2.0,2.0,62,0.00,,,0.00,WeatherCatV1.15B25,2013-06-16 02:00:00,
2013-06-15 22:05:00,69.6,56.4,29.96,South,188,0.0,0.0,63,0.00,,,0.00,WeatherCatV1.15B25,2013-06-16 02:05:00,
2013-06-15 22:10:00,69.4,56.2,29.96,South,188,0.0,0.0,63,0.00,,,0.00,WeatherCatV1.15B25,2013-06-16 02:10:00,
2013-06-15 22:15:00,69.1,57.3,29.95,South,188,0.0,0.0,66,0.00,,,0.00,WeatherCatV1.15B25,2013-06-16 02:15:00,
2013-06-15 22:20:00,68.8,57.4,29.95,South,188,0.0,0.0,67,0.00,,,0.00,WeatherCatV1.15B25,2013-06-16 02:20:00,
2013-06-15 22:25:00,68.6,57.2,29.95,South,188,0.0,0.0,67,0.00,,,0.00,WeatherCatV1.15B25,2013-06-16 02:25:00,
2013-06-15 22:30:00,68.4,57.0,29.96,South,188,0.0,0.0,67,0.00,,,0.00,WeatherCatV1.15B25,2013-06-16 02:30:00,
2013-06-15 22:35:00,68.4,56.6,29.97,South,188,0.0,0.0,66,0.00,,,0.00,WeatherCatV1.15B25,2013-06-16 02:35:00,
2013-06-15 22:40:00,68.3,57.3,29.96,South,188,0.0,0.0,68,0.00,,,0.00,WeatherCatV1.15B25,2013-06-16 02:40:00,
2013-06-15 22:45:00,68.0,57.0,29.96,South,188,0.0,0.0,68,0.00,,,0.00,WeatherCatV1.15B25,2013-06-16 02:45:00,
2013-06-15 22:50:00,67.9,57.3,29.96,South,188,0.0,0.0,69,0.00,,,0.00,WeatherCatV1.15B25,2013-06-16 02:50:00,
2013-06-15 22:55:00,67.7,57.2,29.95,South,188,0.0,0.0,69,0.00,,,0.00,WeatherCatV1.15B25,2013-06-16 02:55:00,
2013-06-15 23:00:00,67.5,58.1,29.96,South,188,0.0,0.0,72,0.00,,,0.00,WeatherCatV1.15B25,2013-06-16 03:00:00,
2013-06-15 23:05:00,67.3,58.3,29.95,South,188,0.0,0.0,73,0.00,,,0.00,WeatherCatV1.15B25,2013-06-16 03:05:00,
2013-06-15 23:10:00,67.1,58.1,29.96,South,188,0.0,0.0,73,0.00,,,0.00,WeatherCatV1.15B25,2013-06-16 03:10:00,
2013-06-15 23:15:00,67.0,58.4,29.95,South,188,0.0,0.0,74,0.00,,,0.00,WeatherCatV1.15B25,2013-06-16 03:15:00,
2013-06-15 23:20:00,66.9,58.0,29.96,South,188,0.0,0.0,73,0.00,,,0.00,WeatherCatV1.15B25,2013-06-16 03:20:00,
2013-06-15 23:25:00,67.1,58.1,29.96,South,188,0.0,0.0,73,0.00,,,0.00,WeatherCatV1.15B25,2013-06-16 03:25:00,
2013-06-15 23:30:00,67.1,58.1,29.96,South,188,0.0,0.0,73,0.00,,,0.00,WeatherCatV1.15B25,2013-06-16 03:30:00,
2013-06-15 23:35:00,67.1,58.5,29.96,South,188,0.0,0.0,74,0.00,,,0.00,WeatherCatV1.15B25,2013-06-16 03:35:00,
2013-06-15 23:40:00,67.0,58.4,29.96,South,188,0.0,0.0,74,0.00,,,0.00,WeatherCatV1.15B25,2013-06-16 03:40:00,
2013-06-15 23:45:00,66.8,58.6,29.96,South,188,0.0,0.0,75,0.00,,,0.00,WeatherCatV1.15B25,2013-06-16 03:45:00,
2013-06-15 23:50:00,66.6,58.0,29.96,South,188,0.0,0.0,74,0.00,,,0.00,WeatherCatV1.15B25,2013-06-16 03:50:00,
2013-06-15 23:55:00,66.7,57.8,29.95,South,188,0.0,0.0,73,0.00,,,0.00,WeatherCatV1.15B25,2013-06-16 03:55:00,